Location: Gazon
(48.1318°N, 1.2708°W)
Time: 02:01:58
(UTC+00:00)

Cosmos 494 Rocket - Pass Details

Date: 18 September 2020
Orbit: 741 x 771 km, 74.1° (Epoch: 29 October)

Event Time Altitude Azimuth Distance (km) Brightness Sun altitude
Rises 19:56:13 0° 339° (NNW) 3,243 7.9 -17.9°
Reaches altitude 10° 19:58:38 10° 344° (NNW) 2,317 7.0 -18.3°
Maximum altitude 20:03:50 58° 63° (ENE) 898 4.1 -19.1°
Enters shadow 20:05:38 38° 123° (ESE) 1,167 4.4 -19.4°
